| time (UTC) | temp F | wind direction | speed MPH | gust MPH | rain 1hr in | rain 24hr in | rain mn in | humidity % | barometer mb |
| 20260505225743 | 53 | 353 | 1.0 | 2.0 | 0.00 | 0.00 | 0.00 | 74 | 1010.0 |
| 20260505225243 | 53 | 358 | 2.0 | 2.0 | 0.00 | 0.00 | 0.00 | 73 | 1010.2 |
| 20260505224743 | 53 | 14 | 2.0 | 4.0 | 0.00 | 0.00 | 0.00 | 74 | 1010.2 |
| 20260505224243 | 53 | 39 | 2.0 | 2.0 | 0.00 | 0.00 | 0.00 | 74 | 1010.1 |
| 20260505223745 | 53 | 28 | 3.0 | 4.0 | 0.00 | 0.00 | 0.00 | 74 | 1010.1 |
| 20260505223243 | 53 | 359 | 2.0 | 4.0 | 0.00 | 0.00 | 0.00 | 74 | 1010.1 |
| 20260505222745 | 53 | 1 | 2.0 | 4.0 | 0.00 | 0.00 | 0.00 | 74 | 1010.0 |
| 20260505222244 | 54 | 358 | 1.0 | 2.0 | 0.00 | 0.00 | 0.00 | 74 | 1010.1 |
| 20260505221743 | 54 | 50 | 1.0 | 2.0 | 0.00 | 0.00 | 0.00 | 74 | 1009.8 |
| 20260505221244 | 54 | 17 | 2.0 | 2.0 | 0.00 | 0.00 | 0.00 | 74 | 1009.6 |
| 20260505220743 | 54 | 21 | 2.0 | 2.0 | 0.00 | 0.00 | 0.00 | 74 | 1009.8 |
| 20260505220243 | 54 | 350 | 2.0 | 3.0 | 0.00 | 0.00 | 0.00 | 74 | 1009.7 |
| 20260505215745 | 54 | 354 | 2.0 | 3.0 | 0.00 | 0.00 | 0.00 | 74 | 1009.7 |
| 20260505215245 | 54 | 5 | 3.0 | 5.0 | 0.00 | 0.00 | 0.00 | 73 | 1009.7 |
| 20260505214744 | 54 | 18 | 4.0 | 6.0 | 0.00 | 0.00 | 0.00 | 73 | 1009.5 |
| 20260505214246 | 54 | 16 | 2.0 | 4.0 | 0.00 | 0.00 | 0.00 | 74 | 1009.1 |
| 20260505213748 | 54 | 12 | 4.0 | 6.0 | 0.00 | 0.00 | 0.00 | 73 | 1009.1 |
| 20260505213244 | 54 | 9 | 4.0 | 5.0 | 0.00 | 0.00 | 0.00 | 73 | 1009.0 |
| 20260505212743 | 54 | 354 | 3.0 | 4.0 | 0.00 | 0.00 | 0.00 | 73 | 1009.1 |
| 20260505212244 | 54 | 2 | 3.0 | 4.0 | 0.00 | 0.00 | 0.00 | 73 | 1009.2 |
| 20260505211744 | 54 | 356 | 3.0 | 3.0 | 0.00 | 0.00 | 0.00 | 73 | 1009.2 |
| 20260505211245 | 54 | 14 | 2.0 | 3.0 | 0.00 | 0.00 | 0.00 | 73 | 1009.1 |
| 20260505210743 | 54 | 357 | 3.0 | 5.0 | 0.00 | 0.00 | 0.00 | 73 | 1008.5 |
| 20260505210243 | 55 | 6 | 3.0 | 4.0 | 0.00 | 0.00 | 0.00 | 73 | 1009.1 |
| 20260505205744 | 54 | 349 | 2.0 | 3.0 | 0.00 | 0.00 | 0.00 | 74 | 1008.5 |
| 20260505205246 | 54 | 7 | 4.0 | 4.0 | 0.00 | 0.00 | 0.00 | 74 | 1008.8 |
| 20260505204743 | 54 | 8 | 3.0 | 4.0 | 0.00 | 0.00 | 0.00 | 75 | 1009.1 |
| 20260505204244 | 55 | 1 | 3.0 | 3.0 | 0.00 | 0.00 | 0.00 | 74 | 1009.7 |
| 20260505203743 | 55 | 19 | 3.0 | 3.0 | 0.00 | 0.00 | 0.00 | 73 | 1010.0 |
| 20260505203243 | 55 | 357 | 2.0 | 4.0 | 0.00 | 0.00 | 0.00 | 74 | 1009.5 |
| 20260505202746 | 55 | 14 | 1.0 | 2.0 | 0.00 | 0.00 | 0.00 | 74 | 1009.0 |
| 20260505202243 | 55 | 348 | 3.0 | 4.0 | 0.00 | 0.00 | 0.00 | 74 | 1009.0 |
| 20260505201743 | 55 | 351 | 2.0 | 3.0 | 0.00 | 0.00 | 0.00 | 75 | 1008.9 |
| 20260505201245 | 55 | 20 | 3.0 | 3.0 | 0.00 | 0.00 | 0.00 | 75 | 1008.6 |
| 20260505200745 | 55 | 352 | 2.0 | 3.0 | 0.00 | 0.00 | 0.00 | 76 | 1008.6 |
| 20260505200243 | 55 | 0 | 3.0 | 6.0 | 0.00 | 0.00 | 0.00 | 77 | 1008.8 |
| 20260505195745 | 55 | 355 | 4.0 | 4.0 | 0.00 | 0.00 | 0.00 | 76 | 1008.9 |
| 20260505195246 | 55 | 353 | 3.0 | 4.0 | 0.00 | 0.00 | 0.00 | 78 | 1008.6 |
| 20260505194745 | 55 | 11 | 4.0 | 6.0 | 0.00 | 0.00 | 0.00 | 78 | 1008.6 |
| 20260505194243 | 55 | 356 | 3.0 | 4.0 | 0.00 | 0.00 | 0.00 | 77 | 1008.8 |
| 20260505193744 | 55 | 359 | 2.0 | 3.0 | 0.00 | 0.00 | 0.00 | 77 | 1008.8 |
| 20260505193243 | 55 | 350 | 2.0 | 3.0 | 0.00 | 0.00 | 0.00 | 78 | 1008.8 |
| 20260505192745 | 55 | 336 | 2.0 | 3.0 | 0.00 | 0.00 | 0.00 | 78 | 1008.6 |
| 20260505192243 | 55 | 341 | 2.0 | 3.0 | 0.00 | 0.00 | 0.00 | 79 | 1008.8 |
| 20260505191745 | 55 | 355 | 2.0 | 3.0 | 0.00 | 0.00 | 0.00 | 80 | 1008.6 |
| 20260505191245 | 55 | 2 | 3.0 | 5.0 | 0.00 | 0.00 | 0.00 | 80 | 1008.5 |
| 20260505190744 | 55 | 349 | 2.0 | 3.0 | 0.00 | 0.00 | 0.00 | 80 | 1008.4 |
| 20260505190245 | 55 | 351 | 2.0 | 3.0 | 0.00 | 0.00 | 0.00 | 80 | 1008.5 |
| 20260505185743 | 55 | 0 | 3.0 | 5.0 | 0.00 | 0.00 | 0.00 | 81 | 1008.6 |
| 20260505185243 | 56 | 0 | 4.0 | 5.0 | 0.00 | 0.00 | 0.00 | 80 | 1008.6 |
| 20260505184744 | 56 | 6 | 2.0 | 3.0 | 0.00 | 0.00 | 0.00 | 81 | 1008.4 |
| 20260505184243 | 56 | 3 | 4.0 | 5.0 | 0.00 | 0.00 | 0.00 | 80 | 1008.4 |
| 20260505183744 | 56 | 345 | 3.0 | 4.0 | 0.00 | 0.00 | 0.00 | 79 | 1008.3 |
| 20260505183245 | 56 | 356 | 2.0 | 3.0 | 0.00 | 0.00 | 0.00 | 79 | 1008.2 |
| 20260505182743 | 56 | 0 | 4.0 | 4.0 | 0.00 | 0.00 | 0.00 | 79 | 1008.2 |
| 20260505182245 | 57 | 354 | 3.0 | 4.0 | 0.00 | 0.00 | 0.00 | 79 | 1008.1 |
| 20260505181743 | 57 | 342 | 2.0 | 3.0 | 0.00 | 0.00 | 0.00 | 79 | 1008.1 |
| 20260505181246 | 57 | 353 | 3.0 | 4.0 | 0.00 | 0.00 | 0.00 | 79 | 1007.9 |
| 20260505180745 | 57 | 7 | 4.0 | 5.0 | 0.00 | 0.00 | 0.00 | 79 | 1007.8 |
| 20260505180243 | 57 | 349 | 3.0 | 4.0 | 0.00 | 0.00 | 0.00 | 79 | 1007.8 |
| 20260505175744 | 57 | 0 | 3.0 | 4.0 | 0.00 | 0.00 | 0.00 | 79 | 1007.9 |
| 20260505175246 | 57 | 0 | 3.0 | 4.0 | 0.00 | 0.00 | 0.00 | 79 | 1007.7 |
| 20260505174745 | 57 | 345 | 2.0 | 2.0 | 0.00 | 0.00 | 0.00 | 79 | 1007.6 |
| 20260505174246 | 57 | 10 | 2.0 | 3.0 | 0.00 | 0.00 | 0.00 | 80 | 1007.6 |
| 20260505173746 | 57 | 359 | 2.0 | 3.0 | 0.00 | 0.00 | 0.00 | 79 | 1007.5 |
| 20260505173247 | 57 | 354 | 3.0 | 4.0 | 0.00 | 0.00 | 0.00 | 80 | 1007.4 |
| 20260505172743 | 57 | 353 | 3.0 | 3.0 | 0.00 | 0.00 | 0.00 | 80 | 1007.3 |
| 20260505172245 | 57 | 7 | 2.0 | 3.0 | 0.00 | 0.00 | 0.00 | 80 | 1007.3 |
| 20260505171745 | 57 | 352 | 4.0 | 5.0 | 0.00 | 0.00 | 0.00 | 81 | 1007.3 |
| 20260505171243 | 57 | 350 | 3.0 | 5.0 | 0.00 | 0.00 | 0.00 | 81 | 1007.2 |
| 20260505170746 | 57 | 358 | 3.0 | 4.0 | 0.00 | 0.00 | 0.00 | 81 | 1006.9 |
| 20260505170244 | 57 | 1 | 3.0 | 5.0 | 0.00 | 0.00 | 0.00 | 82 | 1007.0 |
| 20260505165744 | 57 | 349 | 3.0 | 5.0 | 0.00 | 0.00 | 0.00 | 82 | 1006.9 |
| 20260505165244 | 57 | 5 | 3.0 | 4.0 | 0.00 | 0.00 | 0.00 | 81 | 1006.8 |
| 20260505164743 | 57 | 0 | 4.0 | 5.0 | 0.00 | 0.00 | 0.00 | 82 | 1006.7 |
| 20260505164245 | 57 | 357 | 3.0 | 4.0 | 0.00 | 0.00 | 0.00 | 83 | 1006.6 |
| 20260505163743 | 58 | 7 | 4.0 | 6.0 | 0.00 | 0.00 | 0.00 | 83 | 1006.4 |
| 20260505163244 | 58 | 5 | 3.0 | 3.0 | 0.00 | 0.00 | 0.00 | 83 | 1006.3 |
| 20260505162744 | 58 | 349 | 3.0 | 4.0 | 0.00 | 0.00 | 0.00 | 83 | 1006.2 |
| 20260505162245 | 58 | 357 | 4.0 | 5.0 | 0.00 | 0.00 | 0.00 | 83 | 1006.0 |
| 20260505161745 | 58 | 8 | 2.0 | 3.0 | 0.00 | 0.00 | 0.00 | 82 | 1005.6 |
| 20260505161245 | 59 | 356 | 4.0 | 4.0 | 0.00 | 0.00 | 0.00 | 82 | 1005.6 |
| 20260505160743 | 59 | 351 | 2.0 | 4.0 | 0.00 | 0.00 | 0.00 | 82 | 1005.4 |
| 20260505160246 | 60 | 335 | 2.0 | 2.0 | 0.00 | 0.00 | 0.00 | 82 | 1005.1 |
| 20260505153243 | 62 | 354 | 2.0 | 3.0 | 0.00 | 0.00 | 0.00 | 83 | 1004.5 |
| 20260505152745 | 62 | 353 | 2.0 | 4.0 | 0.00 | 0.00 | 0.00 | 83 | 1004.5 |
| 20260505152245 | 63 | 1 | 3.0 | 5.0 | 0.00 | 0.00 | 0.00 | 82 | 1004.3 |
| 20260505151744 | 64 | 358 | 3.0 | 5.0 | 0.00 | 0.00 | 0.00 | 82 | 1004.2 |
| 20260505151244 | 65 | 6 | 2.0 | 3.0 | 0.00 | 0.00 | 0.00 | 81 | 1003.9 |
| 20260505150745 | 67 | 1 | 3.0 | 5.0 | 0.00 | 0.00 | 0.00 | 79 | 1003.7 |
| 20260505150245 | 69 | 7 | 3.0 | 3.0 | 0.00 | 0.00 | 0.00 | 83 | 1003.5 |
| 20260505140249 | 69 | 32 | 1.0 | 2.0 | 0.00 | 0.00 | 0.00 | 84 | 1002.2 |
| 20260505130245 | 70 | 18 | 1.0 | 1.0 | 0.00 | 0.00 | 0.00 | 80 | 1002.0 |
| 20260505124747 | 71 | 10 | 1.0 | 1.0 | 0.00 | 0.00 | 0.00 | 77 | 1002.0 |
| 20260505124245 | 71 | 20 | 1.0 | 1.0 | 0.00 | 0.00 | 0.00 | 77 | 1001.8 |
| 20260505123745 | 71 | 14 | 1.0 | 1.0 | 0.00 | 0.00 | 0.00 | 77 | 1001.8 |
| 20260505123246 | 72 | 18 | 1.0 | 1.0 | 0.00 | 0.00 | 0.00 | 77 | 1001.8 |
| 20260505122745 | 72 | 7 | 0.0 | 1.0 | 0.00 | 0.00 | 0.00 | 75 | 1001.8 |
| 20260505122243 | 72 | 0 | 0.0 | 0.0 | 0.00 | 0.00 | 0.00 | 75 | 1001.6 |
| 20260505121746 | 72 | 0 | 0.0 | 0.0 | 0.00 | 0.00 | 0.00 | 75 | 1001.6 |
| 20260505121245 | 72 | 0 | 0.0 | 0.0 | 0.00 | 0.00 | 0.00 | 75 | 1001.4 |
| 20260505120746 | 72 | 0 | 0.0 | 0.0 | 0.00 | 0.00 | 0.00 | 75 | 1001.4 |
| 20260505120245 | 72 | 157 | 0.0 | 1.0 | 0.00 | 0.00 | 0.00 | 74 | 1001.3 |
| 20260505115745 | 72 | 0 | 0.0 | 0.0 | 0.00 | 0.00 | 0.00 | 74 | 1001.4 |
| 20260505115243 | 72 | 55 | 0.0 | 0.0 | 0.00 | 0.00 | 0.00 | 73 | 1001.3 |
| 20260505114746 | 73 | 0 | 0.0 | 0.0 | 0.00 | 0.00 | 0.00 | 73 | 1001.2 |
| 20260505114245 | 73 | 138 | 0.0 | 0.0 | 0.00 | 0.00 | 0.00 | 73 | 1000.9 |
| 20260505113744 | 73 | 94 | 0.0 | 1.0 | 0.00 | 0.00 | 0.00 | 72 | 1000.9 |
| 20260505113244 | 73 | 0 | 0.0 | 0.0 | 0.00 | 0.00 | 0.00 | 71 | 1000.5 |
| 20260505112744 | 73 | 14 | 0.0 | 0.0 | 0.00 | 0.00 | 0.00 | 72 | 1000.2 |
| 20260505112245 | 73 | 193 | 0.0 | 1.0 | 0.00 | 0.00 | 0.00 | 72 | 999.9 |
| 20260505111746 | 73 | 148 | 1.0 | 2.0 | 0.00 | 0.00 | 0.00 | 72 | 999.9 |
| 20260505111245 | 73 | 148 | 1.0 | 2.0 | 0.00 | 0.00 | 0.00 | 71 | 999.9 |
| 20260505110743 | 73 | 158 | 0.0 | 0.0 | 0.00 | 0.00 | 0.00 | 72 | 999.9 |
| 20260505110245 | 73 | 323 | 0.0 | 1.0 | 0.00 | 0.00 | 0.00 | 71 | 999.9 |
| 20260505101743 | 73 | 155 | 2.0 | 4.0 | 0.00 | 0.00 | 0.00 | 72 | 999.1 |
| 20260505101244 | 73 | 158 | 1.0 | 3.0 | 0.00 | 0.00 | 0.00 | 72 | 999.1 |
| 20260505100746 | 73 | 152 | 3.0 | 4.0 | 0.00 | 0.00 | 0.00 | 72 | 999.1 |
| 20260505100244 | 73 | 156 | 2.0 | 4.0 | 0.00 | 0.00 | 0.00 | 72 | 999.1 |
| 20260505095743 | 74 | 156 | 3.0 | 5.0 | 0.00 | 0.00 | 0.00 | 72 | 999.1 |
| 20260505095243 | 74 | 139 | 4.0 | 7.0 | 0.00 | 0.00 | 0.00 | 72 | 999.1 |
| 20260505094744 | 74 | 125 | 1.0 | 1.0 | 0.00 | 0.00 | 0.00 | 72 | 999.1 |
| 20260505094244 | 74 | 153 | 3.0 | 5.0 | 0.00 | 0.00 | 0.00 | 72 | 999.0 |
| 20260505093745 | 74 | 154 | 2.0 | 3.0 | 0.00 | 0.00 | 0.00 | 72 | 999.0 |
| 20260505093246 | 74 | 166 | 2.0 | 4.0 | 0.00 | 0.00 | 0.00 | 72 | 999.0 |
| 20260505092744 | 74 | 153 | 2.0 | 6.0 | 0.00 | 0.00 | 0.00 | 72 | 999.0 |
| 20260505092243 | 74 | 166 | 4.0 | 7.0 | 0.00 | 0.00 | 0.00 | 72 | 998.9 |
| 20260505091743 | 74 | 151 | 3.0 | 4.0 | 0.00 | 0.00 | 0.00 | 72 | 999.0 |
| 20260505091244 | 74 | 164 | 3.0 | 6.0 | 0.00 | 0.00 | 0.00 | 72 | 999.1 |
| 20260505090744 | 74 | 158 | 4.0 | 7.0 | 0.00 | 0.00 | 0.00 | 72 | 999.2 |
| 20260505090244 | 74 | 103 | 2.0 | 3.0 | 0.00 | 0.00 | 0.00 | 72 | 999.2 |
| 20260505085744 | 74 | 140 | 1.0 | 2.0 | 0.00 | 0.00 | 0.00 | 72 | 999.3 |
| 20260505085244 | 74 | 146 | 4.0 | 6.0 | 0.00 | 0.00 | 0.00 | 72 | 999.3 |
| 20260505084743 | 74 | 137 | 2.0 | 3.0 | 0.00 | 0.00 | 0.00 | 72 | 999.3 |
| 20260505084243 | 74 | 172 | 0.0 | 1.0 | 0.00 | 0.00 | 0.00 | 72 | 999.3 |
| 20260505083746 | 74 | 131 | 1.0 | 2.0 | 0.00 | 0.00 | 0.00 | 72 | 999.4 |
| 20260505083244 | 74 | 143 | 4.0 | 7.0 | 0.00 | 0.00 | 0.00 | 72 | 999.4 |
| 20260505082743 | 74 | 159 | 3.0 | 5.0 | 0.00 | 0.00 | 0.00 | 72 | 999.4 |
| 20260505082244 | 74 | 145 | 2.0 | 4.0 | 0.00 | 0.00 | 0.00 | 72 | 999.5 |
| 20260505081745 | 74 | 158 | 4.0 | 6.0 | 0.00 | 0.00 | 0.00 | 72 | 999.7 |
| 20260505081245 | 74 | 144 | 1.0 | 2.0 | 0.00 | 0.00 | 0.00 | 72 | 999.6 |
| 20260505080743 | 74 | 161 | 4.0 | 8.0 | 0.00 | 0.00 | 0.00 | 72 | 999.6 |
| 20260505080243 | 74 | 149 | 2.0 | 6.0 | 0.00 | 0.00 | 0.00 | 72 | 999.6 |
| 20260505075744 | 74 | 174 | 3.0 | 4.0 | 0.00 | 0.00 | 0.00 | 72 | 999.7 |
| 20260505075243 | 74 | 165 | 2.0 | 4.0 | 0.00 | 0.00 | 0.00 | 72 | 999.7 |
| 20260505074743 | 74 | 152 | 4.0 | 9.0 | 0.00 | 0.00 | 0.00 | 72 | 999.8 |
| 20260505074243 | 74 | 158 | 4.0 | 6.0 | 0.00 | 0.00 | 0.00 | 72 | 999.8 |
| 20260505073744 | 74 | 177 | 2.0 | 5.0 | 0.00 | 0.00 | 0.00 | 72 | 999.8 |
| 20260505073243 | 74 | 168 | 3.0 | 7.0 | 0.00 | 0.00 | 0.00 | 72 | 999.9 |
| 20260505072743 | 74 | 153 | 4.0 | 8.0 | 0.00 | 0.00 | 0.00 | 72 | 999.9 |
| 20260505072244 | 74 | 148 | 2.0 | 4.0 | 0.00 | 0.00 | 0.00 | 72 | 1000.0 |
| 20260505071743 | 74 | 126 | 2.0 | 4.0 | 0.00 | 0.00 | 0.00 | 72 | 1000.1 |
| 20260505071243 | 74 | 157 | 4.0 | 7.0 | 0.00 | 0.00 | 0.00 | 72 | 1000.1 |
| 20260505070743 | 74 | 161 | 4.0 | 5.0 | 0.00 | 0.00 | 0.00 | 72 | 1000.2 |
| 20260505070243 | 74 | 167 | 4.0 | 5.0 | 0.00 | 0.00 | 0.00 | 72 | 1000.2 |
| 20260505065743 | 74 | 177 | 3.0 | 4.0 | 0.00 | 0.00 | 0.00 | 72 | 1000.4 |
| 20260505065243 | 74 | 163 | 3.0 | 7.0 | 0.00 | 0.00 | 0.00 | 72 | 1000.4 |
| 20260505064743 | 74 | 156 | 3.0 | 6.0 | 0.00 | 0.00 | 0.00 | 72 | 1000.5 |
| 20260505064244 | 74 | 149 | 3.0 | 7.0 | 0.00 | 0.00 | 0.00 | 71 | 1000.6 |
| 20260505063744 | 74 | 145 | 2.0 | 4.0 | 0.00 | 0.00 | 0.00 | 71 | 1000.5 |
| 20260505063243 | 74 | 166 | 4.0 | 9.0 | 0.00 | 0.00 | 0.00 | 71 | 1000.5 |
| 20260505062743 | 74 | 178 | 2.0 | 5.0 | 0.00 | 0.00 | 0.00 | 72 | 1000.7 |
| 20260505062243 | 74 | 149 | 2.0 | 5.0 | 0.00 | 0.00 | 0.00 | 71 | 1000.7 |
| 20260505061743 | 74 | 162 | 4.0 | 6.0 | 0.00 | 0.00 | 0.00 | 71 | 1000.8 |
| 20260505061245 | 74 | 168 | 5.0 | 8.0 | 0.00 | 0.00 | 0.00 | 71 | 1000.8 |
| 20260505060743 | 74 | 145 | 2.0 | 6.0 | 0.00 | 0.00 | 0.00 | 71 | 1000.8 |
| 20260505060243 | 74 | 160 | 3.0 | 8.0 | 0.00 | 0.00 | 0.00 | 71 | 1000.9 |
| 20260505055744 | 74 | 152 | 2.0 | 3.0 | 0.00 | 0.00 | 0.00 | 71 | 1000.9 |
| 20260505055248 | 74 | 164 | 5.0 | 8.0 | 0.00 | 0.00 | 0.00 | 71 | 1001.0 |
| 20260505054744 | 74 | 149 | 3.0 | 6.0 | 0.00 | 0.00 | 0.00 | 71 | 1001.0 |
| 20260505054244 | 74 | 156 | 2.0 | 4.0 | 0.00 | 0.00 | 0.00 | 71 | 1001.0 |
| 20260505053743 | 74 | 135 | 3.0 | 6.0 | 0.00 | 0.00 | 0.00 | 71 | 1001.1 |
| 20260505053243 | 74 | 154 | 4.0 | 7.0 | 0.00 | 0.00 | 0.00 | 71 | 1000.9 |
| 20260505052743 | 75 | 151 | 4.0 | 6.0 | 0.00 | 0.00 | 0.00 | 70 | 1001.2 |
| 20260505052244 | 75 | 153 | 5.0 | 10.0 | 0.00 | 0.00 | 0.00 | 70 | 1001.1 |
| 20260505051746 | 75 | 150 | 4.0 | 8.0 | 0.00 | 0.00 | 0.00 | 70 | 1001.1 |
| 20260505051244 | 75 | 130 | 2.0 | 6.0 | 0.00 | 0.00 | 0.00 | 70 | 1001.1 |
| 20260505050744 | 75 | 155 | 3.0 | 4.0 | 0.00 | 0.00 | 0.00 | 70 | 1001.2 |
| 20260505050244 | 75 | 164 | 5.0 | 10.0 | 0.00 | 0.00 | 0.00 | 70 | 1001.3 |
| 20260505041744 | 75 | 158 | 4.0 | 9.0 | 0.00 | 0.00 | 0.00 | 69 | 1001.7 |
| 20260505041244 | 75 | 152 | 5.0 | 9.0 | 0.00 | 0.00 | 0.00 | 69 | 1001.7 |
| 20260505040743 | 76 | 120 | 2.0 | 4.0 | 0.00 | 0.00 | 0.00 | 69 | 1001.7 |
| 20260505040244 | 76 | 154 | 4.0 | 7.0 | 0.00 | 0.00 | 0.00 | 68 | 1001.7 |
| 20260505035743 | 76 | 155 | 4.0 | 9.0 | 0.00 | 0.00 | 0.00 | 68 | 1001.7 |
| 20260505035244 | 76 | 162 | 3.0 | 6.0 | 0.00 | 0.00 | 0.00 | 68 | 1001.7 |
| 20260505034743 | 76 | 69 | 2.0 | 3.0 | 0.00 | 0.00 | 0.00 | 68 | 1001.7 |
| 20260505034244 | 76 | 147 | 4.0 | 9.0 | 0.00 | 0.00 | 0.00 | 68 | 1001.7 |
| 20260505033744 | 76 | 163 | 6.0 | 12.0 | 0.00 | 0.00 | 0.00 | 67 | 1001.6 |
| 20260505033243 | 76 | 143 | 2.0 | 6.0 | 0.00 | 0.00 | 0.00 | 67 | 1001.8 |
| 20260505032743 | 76 | 151 | 6.0 | 9.0 | 0.00 | 0.00 | 0.00 | 67 | 1001.6 |
| 20260505031757 | 76 | 126 | 3.0 | 5.0 | 0.00 | 0.00 | 0.00 | 66 | 1001.6 |
| 20260505031243 | 77 | 148 | 4.0 | 12.0 | 0.00 | 0.00 | 0.00 | 66 | 1001.5 |
| 20260505030743 | 77 | 151 | 4.0 | 7.0 | 0.00 | 0.00 | 0.00 | 66 | 1001.4 |
| 20260505030243 | 77 | 34 | 2.0 | 6.0 | 0.00 | 0.00 | 0.00 | 66 | 1001.4 |
| 20260505025743 | 77 | 145 | 2.0 | 10.0 | 0.00 | 0.00 | 0.00 | 65 | 1001.4 |
| 20260505025244 | 77 | 144 | 3.0 | 6.0 | 0.00 | 0.00 | 0.00 | 65 | 1001.2 |
| 20260505024744 | 77 | 129 | 2.0 | 6.0 | 0.00 | 0.00 | 0.00 | 65 | 1001.1 |
| 20260505024243 | 77 | 164 | 6.0 | 13.0 | 0.00 | 0.00 | 0.00 | 65 | 1001.0 |
| 20260505023743 | 78 | 128 | 3.0 | 5.0 | 0.00 | 0.00 | 0.00 | 64 | 1001.1 |
| 20260505023244 | 78 | 155 | 7.0 | 15.0 | 0.00 | 0.00 | 0.00 | 64 | 1001.2 |
| 20260505022745 | 78 | 156 | 5.0 | 11.0 | 0.00 | 0.00 | 0.00 | 64 | 1001.1 |
| 20260505022244 | 78 | 147 | 4.0 | 9.0 | 0.00 | 0.00 | 0.00 | 64 | 1001.0 |
| 20260505021744 | 78 | 154 | 4.0 | 11.0 | 0.00 | 0.00 | 0.00 | 63 | 1001.0 |
| 20260505021243 | 78 | 146 | 4.0 | 11.0 | 0.00 | 0.00 | 0.00 | 63 | 1000.8 |
| 20260505020744 | 78 | 156 | 7.0 | 15.0 | 0.00 | 0.00 | 0.00 | 63 | 1000.8 |
| 20260505020244 | 78 | 153 | 6.0 | 13.0 | 0.00 | 0.00 | 0.00 | 63 | 1000.8 |
| 20260505015745 | 79 | 161 | 6.0 | 12.0 | 0.00 | 0.00 | 0.00 | 62 | 1001.0 |
| 20260505015243 | 79 | 171 | 5.0 | 12.0 | 0.00 | 0.00 | 0.00 | 62 | 1001.0 |
| 20260505014743 | 79 | 174 | 4.0 | 11.0 | 0.00 | 0.00 | 0.00 | 61 | 1001.0 |
| 20260505014244 | 79 | 160 | 4.0 | 10.0 | 0.00 | 0.00 | 0.00 | 61 | 1000.9 |
| 20260505013744 | 79 | 164 | 5.0 | 11.0 | 0.00 | 0.00 | 0.00 | 61 | 1000.9 |
| 20260505013243 | 79 | 164 | 8.0 | 16.0 | 0.00 | 0.00 | 0.00 | 60 | 1001.0 |
| 20260505012743 | 79 | 155 | 5.0 | 13.0 | 0.00 | 0.00 | 0.00 | 60 | 1000.9 |
| 20260505012244 | 80 | 151 | 4.0 | 7.0 | 0.00 | 0.00 | 0.00 | 60 | 1000.9 |
| 20260505011743 | 80 | 162 | 4.0 | 10.0 | 0.00 | 0.00 | 0.00 | 60 | 1001.0 |
| 20260505011243 | 80 | 153 | 6.0 | 15.0 | 0.00 | 0.00 | 0.00 | 59 | 1001.0 |
| 20260505010744 | 80 | 142 | 2.0 | 7.0 | 0.00 | 0.00 | 0.00 | 59 | 1001.1 |
| 20260505010244 | 80 | 165 | 6.0 | 15.0 | 0.00 | 0.00 | 0.00 | 59 | 1001.1 |
| 20260505005744 | 80 | 163 | 4.0 | 12.0 | 0.00 | 0.00 | 0.00 | 58 | 1001.2 |
| 20260505005243 | 80 | 143 | 4.0 | 11.0 | 0.00 | 0.00 | 0.00 | 59 | 1001.1 |
| 20260505004744 | 80 | 160 | 4.0 | 6.0 | 0.00 | 0.00 | 0.00 | 58 | 1001.2 |
| 20260505004243 | 80 | 162 | 5.0 | 8.0 | 0.00 | 0.00 | 0.00 | 58 | 1001.2 |
| 20260505003743 | 80 | 164 | 4.0 | 7.0 | 0.00 | 0.00 | 0.00 | 58 | 1001.2 |
| 20260505003244 | 80 | 160 | 3.0 | 8.0 | 0.00 | 0.00 | 0.00 | 58 | 1001.2 |
| 20260505002744 | 81 | 164 | 6.0 | 9.0 | 0.00 | 0.00 | 0.00 | 57 | 1001.2 |
| 20260505002244 | 81 | 164 | 2.0 | 6.0 | 0.00 | 0.00 | 0.00 | 57 | 1001.4 |
| 20260505001744 | 81 | 163 | 5.0 | 8.0 | 0.00 | 0.00 | 0.00 | 57 | 1001.4 |
| 20260505001244 | 81 | 156 | 4.0 | 9.0 | 0.00 | 0.00 | 0.00 | 57 | 1001.6 |
| 20260505000743 | 81 | 160 | 6.0 | 10.0 | 0.00 | 0.00 | 0.00 | 56 | 1001.5 |
| 20260505000243 | 81 | 158 | 3.0 | 6.0 | 0.00 | 0.00 | 0.00 | 56 | 1001.7 |
| 20260504235743 | 81 | 164 | 6.0 | 11.0 | 0.00 | 0.00 | 0.00 | 56 | 1001.6 |
| 20260504235243 | 81 | 162 | 8.0 | 11.0 | 0.00 | 0.00 | 0.00 | 56 | 1001.6 |
| 20260504234743 | 81 | 166 | 3.0 | 6.0 | 0.00 | 0.00 | 0.00 | 56 | 1001.7 |
| 20260504234244 | 81 | 162 | 5.0 | 11.0 | 0.00 | 0.00 | 0.00 | 56 | 1001.8 |
| 20260504233743 | 81 | 163 | 5.0 | 12.0 | 0.00 | 0.00 | 0.00 | 56 | 1001.8 |
| 20260504233243 | 81 | 149 | 4.0 | 11.0 | 0.00 | 0.00 | 0.00 | 55 | 1001.8 |
| 20260504232743 | 81 | 177 | 2.0 | 4.0 | 0.00 | 0.00 | 0.00 | 55 | 1001.9 |
| 20260504232243 | 81 | 149 | 4.0 | 7.0 | 0.00 | 0.00 | 0.00 | 55 | 1002.0 |
| 20260504231745 | 82 | 158 | 5.0 | 8.0 | 0.00 | 0.00 | 0.00 | 55 | 1002.0 |
| 20260504231243 | 82 | 156 | 8.0 | 11.0 | 0.00 | 0.00 | 0.00 | 55 | 1002.1 |
| 20260504230744 | 82 | 160 | 6.0 | 12.0 | 0.00 | 0.00 | 0.00 | 55 | 1002.1 |
| 20260504230244 | 82 | 159 | 4.0 | 6.0 | 0.00 | 0.00 | 0.00 | 55 | 1002.1 |